Location: Austin
(30.3000°N, 97.7500°W)
Time: 11:55:23
(UTC-05:00)

Meteor 2-9 Rocket - Pass Details

Date: 03 April 2024
Orbit: 790 x 895 km, 81.3° (Epoch: 21 April)

Event Time Altitude Azimuth Distance (km) Brightness Sun altitude
Rises 06:06:24 0° 352° (N) 3,291 7.4 -15.8°
Reaches altitude 10° 06:08:46 10° 353° (N) 2,362 6.6 -15.3°
Maximum altitude 06:14:05 89° 80° (E) 805 4.1 -14.2°
Drops below altitude 10° 06:19:29 10° 173° (S) 2,392 6.5 -13.0°
Sets 06:21:54 0° 174° (S) 3,335 7.2 -12.5°
